Location: Kitt Peak
(31.9639°N, 111.5992°W)
Time: 21:44:54
(UTC-07:00)

Gurwin Techsat 1B - Visible Passes

Search period start: 18 September 2024 00:00
Search period end: 28 September 2024 00:00
Orbit: 811 x 812 km, 98.9° (Epoch: 18 September)

Date Brightness Start Highest point End Pass type
(mag) Time Alt. Az. Time Alt. Az. Time Alt. Az.
18 Sep 10.6 03:17:00 10° NE 03:21:08 23° E 03:22:26 21° ESE visible
18 Sep 9.2 04:56:13 10° N 05:00:59 35° WNW 05:03:35 22° WSW visible
19 Sep 11.2 02:55:22 10° ENE 02:57:39 13° E 02:58:46 12° ESE visible
19 Sep 8.6 04:32:35 10° N 04:37:48 60° WNW 04:39:56 34° SW visible
20 Sep 8.6 04:09:14 10° NNE 04:14:33 80° ESE 04:16:17 44° S visible
21 Sep 9.5 03:46:10 10° NNE 03:51:14 45° E 03:52:38 37° SE visible
21 Sep 10.0 05:27:11 10° NNW 05:30:42 18° WNW 05:33:47 11° WSW visible
22 Sep 10.4 03:23:27 10° NE 03:27:51 26° E 03:28:58 24° ESE visible
22 Sep 9.4 05:03:03 10° N 05:07:37 30° WNW 05:10:08 21° WSW visible
23 Sep 11.1 03:01:26 10° ENE 03:04:23 15° E 03:05:18 14° ESE visible
23 Sep 8.7 04:39:20 10° N 04:44:28 52° WNW 04:46:28 34° SW visible
24 Sep 8.5 04:15:55 10° NNE 04:21:14 89° W 04:22:48 48° SSW visible
25 Sep 9.2 03:52:45 10° NNE 03:57:56 53° E 03:59:08 44° SE visible
25 Sep 10.2 05:34:13 10° NNW 05:37:18 16° WNW 05:40:18 10° W visible
26 Sep 10.2 03:29:56 10° NE 03:34:34 30° E 03:35:28 29° ESE visible
26 Sep 9.6 05:09:54 10° NNW 05:14:15 26° WNW 05:16:38 19° WSW visible
27 Sep 10.9 03:07:39 10° NE 03:11:07 17° E 03:11:48 17° ESE visible
27 Sep 8.9 04:46:05 10° N 04:51:06 45° WNW 04:52:57 32° WSW visible
